Flag for U.S.A. Weather past 2 weeks in Newark, New Jersey, U.S.A.

Now
58 °F

Passing clouds.


Feels Like: 54 °F
Forecast: 51 / 60 °F
Wind: 17 mph from Northwest

Location: Newark International Airport

Current Time: Oct 26, 2014 at 5:55:45 AM

Latest Report: Oct 26, 2014 at 4:51 AM


Visibility: 10 mi

Pressure: 29.59 "Hg

Humidity: 60%

Dew point: 44 °F

Location of NewarkLocation

Historic Weather in Newark — Graph

°F

Newark temperature yesterday

Maximum temperature yesterday: 69 °F (at 2:51 PM)
Minimum temperature yesterday: 48 °F (at 6:51 AM)
Average temperature yesterday: 59 °F

Past Weeks' High & Low Weather Summary

 TemperatureHumidityPressure
High77 °F (Oct 14, 12:51 PM)97% (Oct 11, 8:51 AM)30.34 "Hg (Oct 11, 8:51 AM)
Low40 °F (Oct 20, 3:51 AM)30% (Oct 12, 3:51 PM)29.56 "Hg (Oct 26, 3:51 AM)
Average59 °F71%29.91 "Hg
* Reported Oct 11 4:51 AM — Oct 26 4:51 AM, Newark, Weather by CustomWeather, © 2014

Note: Actual official high and low records may vary slightly from our data, if they occured in-between our weather recording intervals... More about our weather records

Advertising

Newark weather history for previous 24 hours

 ConditionsComfort  
Time TempWeatherWind HumidityBarometerVisibility
4:51 AM
Oct 26
58 °FPassing clouds.17 mph60%29.59 "Hg10 mi
3:51 AM57 °FPassing clouds.7 mph64%29.56 "Hg10 mi
2:51 AM59 °FPassing clouds.6 mph60%29.56 "Hg10 mi
1:51 AM61 °FMostly cloudy.12 mph58%29.56 "Hg10 mi
12:51 AM61 °FPassing clouds.14 mph56%29.59 "Hg10 mi
11:51 PM
Oct 25
60 °FPassing clouds.10 mph58%29.57 "Hg10 mi
10:51 PM61 °FPassing clouds.14 mph56%29.59 "Hg10 mi
9:51 PM61 °FPassing clouds.16 mph56%29.61 "Hg10 mi
8:51 PM63 °FPartly cloudy.9 mph50%29.62 "Hg10 mi
7:51 PM64 °FPassing clouds.13 mph49%29.64 "Hg10 mi
6:51 PM63 °FScattered clouds.9 mph48%29.64 "Hg10 mi
5:51 PM65 °FScattered clouds.14 mph45%29.65 "Hg10 mi
4:51 PM67 °FScattered clouds.17 mph42%29.66 "Hg10 mi
3:51 PM69 °FScattered clouds.14 mph39%29.67 "Hg10 mi
2:51 PM69 °FScattered clouds.17 mph38%29.70 "Hg10 mi
1:51 PM68 °FScattered clouds.8 mph39%29.73 "Hg10 mi
12:51 PM66 °FScattered clouds.12 mph40%29.78 "Hg10 mi
11:51 AM63 °FPassing clouds.10 mph43%29.82 "Hg10 mi
10:51 AM60 °FPassing clouds.12 mph46%29.85 "Hg10 mi
9:51 AM56 °FPassing clouds.8 mph51%29.86 "Hg10 mi
8:51 AM52 °FPassing clouds.6 mph55%29.87 "Hg10 mi
7:51 AM49 °FPassing clouds.7 mph57%29.88 "Hg10 mi
6:51 AM48 °FPassing clouds.3 mph61%29.87 "Hg10 mi
5:51 AM50 °FPassing clouds.3 mph59%29.88 "Hg10 mi
Weather by CustomWeather, © 2014

See weather overviewHow to use our weather pages